Location: Unspecified
(38.7273°N, 77.0677°W)
Time: 21:55:46
(UTC-04:00)

CAS-4B - Pass Details

Date: 28 September 2021
Orbit: 528 x 541 km, 43.0° (Epoch: 27 October)

Event Time Altitude Azimuth Distance (km) Brightness Sun altitude
Exits shadow 05:36:42 26° 307° (NW) 1,051 ? -17.3°
Maximum altitude 05:38:35 47° 7° (N) 704 ? -16.9°
Drops below altitude 10° 05:42:30 10° 82° (E) 1,768 ? -16.2°
Sets 05:44:48 0° 89° (E) 2,658 ? -15.8°
